Tracking 28790 objects as of 19-Apr-2024
HD Live streaming from Space Station
objects crossing your sky now

BREEZE-M DEB (TANK)

Track BREEZE-M DEB (TANK) now!
10-day predictions


NORAD ID: 37845
Int'l Code: 2011-059C
Perigee: 336.8 km
Apogee: 11,482.4 km
Inclination: 49.7 °
Period: 225.7 minutes
Semi major axis: 12280 km
RCS: 6.8774 m2 (large)
Launch date: October 19, 2011
Source: Commonwealth of Independent States (former USSR) (CIS)
Launch site: TYURATAM MISSILE AND SPACE COMPLEX (TTMTR)

Note: This is SATELLITE DEBRIS
Your satellite tracking list
Your tracking list is empty




NASA's NSSDC Master Catalog

Two Line Element Set (TLE):
1 37845U 11059C   24110.32356187  .00003272  00000-0  64880-3 0  9999
2 37845  49.7380  44.2132 4537878 263.9478  44.4241  6.37928616285649
Source of the keplerian elements: AFSPC